| time (UTC) | temp F | wind direction | speed knots | gust knots | rain 1hr in | rain 24hr in | rain mn in | humidity % | barometer mb |
| 20260505005250 | 68 | 19 | 0.9 | 7.8 | 0.00 | 0.00 | 0.00 | 64 | 1001.8 |
| 20260505004015 | 67 | 132 | 0.9 | 7.0 | 0.00 | 0.00 | 0.00 | 66 | 1001.9 |
| 20260505002756 | 69 | 110 | 0.9 | 10.4 | 0.00 | 0.00 | 0.00 | 63 | 1002.0 |
| 20260505001540 | 70 | 105 | 0.9 | 10.4 | 0.00 | 0.00 | 0.00 | 62 | 1001.9 |
| 20260505000315 | 70 | 117 | 2.6 | 7.8 | 0.00 | 0.00 | 0.00 | 61 | 1001.8 |
| 20260504235122 | 70 | 171 | 2.6 | 12.2 | 0.00 | 0.00 | 0.00 | 62 | 1001.8 |
| 20260504233918 | 70 | 119 | 2.6 | 12.2 | 0.00 | 0.00 | 0.00 | 61 | 1001.9 |
| 20260504232737 | 72 | 85 | 2.6 | 10.4 | 0.00 | 0.00 | 0.00 | 60 | 1002.1 |
| 20260504231552 | 72 | 252 | 2.6 | 10.4 | 0.00 | 0.00 | 0.00 | 57 | 1002.2 |
| 20260504230407 | 72 | 248 | 2.6 | 13.0 | 0.00 | 0.00 | 0.00 | 59 | 1002.4 |
| 20260504225148 | 72 | 244 | 3.5 | 13.0 | 0.00 | 0.00 | 0.00 | 55 | 1002.6 |
| 20260504223912 | 73 | 215 | 2.6 | 12.2 | 0.00 | 0.00 | 0.00 | 53 | 1002.7 |
| 20260504222721 | 73 | 311 | 2.6 | 15.6 | 0.00 | 0.00 | 0.00 | 52 | 1002.8 |
| 20260504221441 | 73 | 355 | 4.3 | 15.6 | 0.00 | 0.00 | 0.00 | 51 | 1002.9 |
| 20260504220248 | 73 | 69 | 2.6 | 13.9 | 0.00 | 0.00 | 0.00 | 49 | 1003.0 |
| 20260504215019 | 75 | 83 | 2.6 | 10.4 | 0.00 | 0.00 | 0.00 | 48 | 1002.9 |
| 20260504213806 | 76 | 254 | 3.5 | 15.6 | 0.00 | 0.00 | 0.00 | 48 | 1003.0 |
| 20260504212545 | 77 | 248 | 3.5 | 15.6 | 0.00 | 0.01 | 0.00 | 44 | 1002.7 |
| 20260504211407 | 78 | 221 | 2.6 | 12.2 | 0.00 | 0.01 | 0.00 | 44 | 1002.8 |
| 20260504210232 | 77 | 307 | 3.5 | 13.9 | 0.00 | 0.01 | 0.00 | 44 | 1002.6 |
| 20260504205020 | 78 | 248 | 3.5 | 13.0 | 0.00 | 0.01 | 0.00 | 45 | 1002.9 |
| 20260504203756 | 77 | 355 | 2.6 | 13.9 | 0.00 | 0.02 | 0.00 | 46 | 1002.9 |
| 20260504202517 | 78 | 313 | 4.3 | 17.4 | 0.00 | 0.02 | 0.00 | 47 | 1002.9 |
| 20260504201311 | 78 | 344 | 3.5 | 13.0 | 0.00 | 0.02 | 0.00 | 50 | 1003.1 |
| 20260504200111 | 78 | 156 | 2.6 | 13.0 | 0.00 | 0.02 | 0.00 | 47 | 1003.0 |
| 20260504194928 | 78 | 16 | 4.3 | 15.6 | 0.00 | 0.02 | 0.00 | 44 | 1003.1 |
| 20260504193653 | 78 | 336 | 3.5 | 15.6 | 0.00 | 0.02 | 0.00 | 48 | 1003.2 |
| 20260504192414 | 78 | 246 | 3.5 | 15.6 | 0.00 | 0.02 | 0.00 | 46 | 1003.5 |
| 20260504191219 | 77 | 294 | 3.5 | 15.6 | 0.00 | 0.02 | 0.00 | 50 | 1003.6 |
| 20260504190008 | 78 | 343 | 4.3 | 22.6 | 0.00 | 0.02 | 0.00 | 48 | 1003.7 |
| 20260504184749 | 78 | 162 | 3.5 | 22.6 | 0.00 | 0.02 | 0.00 | 45 | 1003.7 |
| 20260504183608 | 78 | 229 | 2.6 | 12.2 | 0.00 | 0.02 | 0.00 | 49 | 1003.6 |
| 20260504182344 | 77 | 211 | 3.5 | 13.0 | 0.00 | 0.02 | 0.00 | 51 | 1004.0 |
| 20260504181156 | 77 | 142 | 2.6 | 9.6 | 0.00 | 0.02 | 0.00 | 54 | 1004.0 |
| 20260504180004 | 76 | 269 | 3.5 | 13.0 | 0.00 | 0.02 | 0.00 | 51 | 1004.1 |
| 20260504174740 | 75 | 51 | 3.5 | 13.0 | 0.00 | 0.02 | 0.00 | 51 | 1003.9 |
| 20260504173519 | 76 | 263 | 2.6 | 9.6 | 0.00 | 0.02 | 0.00 | 51 | 1004.0 |
| 20260504172247 | 75 | 83 | 3.5 | 10.4 | 0.00 | 0.02 | 0.00 | 55 | 1004.3 |
| 20260504171113 | 75 | 221 | 3.5 | 15.6 | 0.00 | 0.02 | 0.00 | 58 | 1004.5 |
| 20260504151052 | 67 | 112 | 0.9 | 7.0 | 0.00 | 0.02 | 0.00 | 61 | 1006.3 |
| 20260504141135 | 63 | 112 | 0.9 | 7.0 | 0.00 | 0.02 | 0.00 | 64 | 1006.8 |
| 20260504081958 | 50 | 162 | 0.0 | 7.0 | 0.00 | 0.02 | 0.00 | 77 | 1007.9 |
| 20260504080825 | 49 | 182 | 0.0 | 7.0 | 0.00 | 0.02 | 0.00 | 79 | 1008.0 |
| 20260504050748 | 46 | 130 | 0.0 | 1.7 | 0.00 | 0.02 | 0.00 | 86 | 1009.9 |
| 20260504045613 | 46 | 159 | 0.0 | 0.0 | 0.00 | 0.02 | 0.00 | 85 | 1009.9 |
| 20260504044354 | 46 | 150 | 0.0 | 0.0 | 0.00 | 0.02 | 0.00 | 84 | 1010.0 |
| 20260504043145 | 47 | 113 | 0.0 | 2.6 | 0.00 | 0.02 | 0.00 | 84 | 1010.0 |
| 20260504042007 | 47 | 136 | 0.0 | 2.6 | 0.00 | 0.02 | 0.00 | 84 | 1010.1 |
| 20260504040741 | 47 | 148 | 0.9 | 3.5 | 0.00 | 0.02 | 0.00 | 83 | 1010.3 |
| 20260504035558 | 47 | 138 | 0.9 | 3.5 | 0.00 | 0.02 | 0.02 | 83 | 1010.3 |
| 20260504034354 | 47 | 123 | 0.9 | 2.6 | 0.00 | 0.02 | 0.02 | 83 | 1010.4 |
| 20260504033201 | 47 | 130 | 0.0 | 2.6 | 0.00 | 0.02 | 0.02 | 82 | 1010.5 |
| 20260504032018 | 48 | 123 | 0.9 | 3.5 | 0.00 | 0.02 | 0.02 | 81 | 1010.7 |
| 20260504030804 | 48 | 148 | 0.9 | 6.1 | 0.00 | 0.02 | 0.02 | 81 | 1010.8 |
| 20260504025546 | 48 | 136 | 0.9 | 6.1 | 0.00 | 0.02 | 0.02 | 80 | 1010.9 |
| 20260504024404 | 49 | 152 | 0.9 | 6.1 | 0.00 | 0.02 | 0.02 | 80 | 1011.1 |
| 20260504023211 | 48 | 143 | 0.9 | 3.5 | 0.00 | 0.02 | 0.02 | 80 | 1011.0 |
| 20260504022026 | 48 | 139 | 0.0 | 7.0 | 0.00 | 0.02 | 0.02 | 80 | 1011.1 |
| 20260504020836 | 50 | 126 | 2.6 | 7.0 | 0.00 | 0.02 | 0.02 | 78 | 1011.1 |
| 20260504015643 | 49 | 120 | 2.6 | 7.0 | 0.00 | 0.02 | 0.02 | 78 | 1011.2 |
| 20260504014408 | 50 | 124 | 2.6 | 7.0 | 0.00 | 0.02 | 0.02 | 76 | 1011.1 |
| 20260504013215 | 50 | 123 | 0.9 | 7.0 | 0.00 | 0.02 | 0.02 | 76 | 1011.2 |
| 20260504012035 | 51 | 199 | 2.6 | 7.8 | 0.00 | 0.02 | 0.02 | 75 | 1011.3 |
| 20260504010859 | 51 | 117 | 2.6 | 7.8 | 0.00 | 0.02 | 0.02 | 75 | 1011.1 |